sat.trackr.live / text

‹ back to catalog

STARLINK-2419

NORAD 47830 · 2021-018AV

PAYLOAD ACTIVE UNKNOWN

§ Identity

Operator
Country
US
Launch date
2021-03-11
Launch site
AFETR
Launch vehicle
Mass (kg)
RCS (m²)

Purposes: comms

External: N2YO · Heavens-Above · Gunter

§ Orbital elements

Epoch: 2026-09-20T00:09:58.465152Z

Period
94.01 min
Inclination
53.1599°
Eccentricity
0.0001166
Mean motion
15.31713460 rev/d
Perigee alt
469.9 km
Apogee alt
471.5 km
Semi-major
6,848.8 km
B*
7.7637e-5
RAAN
71.3044°
Arg perigee
95.4985°
Mean anomaly
264.6149°
Rev number
30,631

§ Raw data

STARLINK-24191 47830U 21018AV  26263.00692668  .00002046  00000+0  77637-4 0  99952 47830  53.1599  71.3044 0001166  95.4985 264.6149 15.31713460306315

JSON: /api/v1/satellites/47830 · /tle

For live sub-satellite position, see the globe view (requires WebGL).

§ Visibility from observer

Set your observer location to see the next 7 days of passes ≥ 10°. The values pass through the URL so the page stays shareable.

No JS? Fill the form by hand. The geolocation button needs JavaScript.